Hourly Data Report for July 06, 2021

FLIN FLON
MANITOBA
Current Station Operator: ECCC - MSC

54°41'00.000" N
101°41'00.000" W
303.90 m
5050919
71954
WFO

Download Data

Hourly Data (July 2021)
Hourly Data Report for July 6, 2021
TIME
LST
Temp Definition
°C
Dew Point Definition
°C
Rel Hum Definition
%
Precip. Amount Definition
mm

Wind Dir Definition
10's deg

Wind Spd Definition
km/h
Visibility Definition
km
Stn Press Definition
kPa
Hmdx Definition


Wind Chill Definition


Weather Definition


00:00 10.0 5.6 74 0.0 11 5   99.07     LegendNANA
01:00 9.9 5.9 76 0.0 10 5   99.07     LegendNANA
02:00 9.5 5.6 77 0.0 10 6   99.08     LegendNANA
03:00 8.3 5.4 82 0.0 11 5   99.08     LegendNANA
04:00 7.7 5.0 83 0.0 10 4   99.12     LegendNANA
05:00 7.7 6.3 91 0.0 9 2   99.16     LegendNANA
06:00 9.7 6.4 80 0.0 11 3   99.16     LegendNANA
07:00 11.3 5.6 68 0.0 13 7   99.16     LegendNANA
08:00 12.2 4.3 58 0.0 8 5   99.16     LegendNANA
09:00 12.7 3.9 55 0.0 36 2   99.14     LegendNANA
10:00 13.9 3.2 49 0.0 1 3   99.09     LegendNANA
11:00 14.7 4.1 49 0.0 20 10   99.07     LegendNANA
12:00 15.4 3.7 46 0.0 23 10   99.03     LegendNANA
13:00 16.4 3.3 41 0.0 21 9   98.97     LegendNANA
14:00 17.8 3.1 37 0.0 21 13   98.92     LegendNANA
15:00 18.0 0.5 31 0.0 20 11   98.86     LegendNANA
16:00 17.8 2.3 36 0.0 17 10   98.80     LegendNANA
17:00 18.4 4.9 41 0.0 15 11   98.73     LegendNANA
18:00 18.5 5.1 41 0.0 16 11   98.66     LegendNANA
19:00 18.3 4.9 41 0.0 16 11   98.61     LegendNANA
20:00 17.9 4.6 41 0.0 19 10   98.58     LegendNANA
21:00 17.2 4.9 44 0.0 18 10   98.55     LegendNANA
22:00 16.6 6.7 52 0.0 19 12   98.54     LegendNANA
23:00 15.6 8.1 61 0.0 17 10   98.53     LegendNANA

Notes on Data Quality.

Legend

  • E = Estimated
  • M = Missing
  • NA = Not Available*
  • [empty] = Indicates an unobserved value
Date modified: